Billings, MT

8:53 PM MDT on April 26, 2018 (GMT -0600)
Billings Logan International

Weather History for KBIL - February, 2012

Change the Weather History Date:

Monday, February 20, 2012

  Actual Average Record
Temperature  
Mean Temperature 29 °F 31 °F  
Max Temperature 39 °F 41 °F 69 °F (1995)
Min Temperature 19 °F 21 °F -15 °F (2018)
Degree Days  
Heating Degree Days 36 34  
Month to date heating degree days 706 709  
Since 1 July heating degree days 4209 4705  
Cooling Degree Days 0 0  
Month to date cooling degree days 0 0  
Year to date cooling degree days 0 0  
Moisture  
Dew Point 14 °F    
Average Humidity 50    
Maximum Humidity 67    
Minimum Humidity 32    
Precipitation  
Precipitation T in 0.01 in 0.45 in (1965)
Month to date precipitation 0.15 0.32  
Year to date precipitation 0.76 0.80  
Snow  
Snow T in 0.30 in 5.20 in (1965)
Month to date snowfall 2.8 4.2  
Since 1 July snowfall 27.7 32.5  
Snow Depth 0.00 in    
Sea Level Pressure  
Sea Level Pressure 29.90 in    
Wind  
Wind Speed 12 mph (WSW)    
Max Wind Speed 29 mph    
Max Gust Speed 36 mph    
Visibility 10 miles    
Events Snow    
T = Trace of Precipitation, MM = Missing Value Source: NWS Daily Summary

Daily Weather History Graph

Daily Weather History Graph

Search for Another Location

Airport or City:

Astronomy

Feb. 20, 2012 Rise Set
Actual Time 7:09 AM MST 5:47 PM MST
Civil Twilight 6:38 AM MST 6:17 PM MST
Nautical Twilight 6:04 AM MST 6:52 PM MST
Astronomical Twilight 5:29 AM MST 7:26 PM MST
Moon 6:09 AM MST (2/20) 4:55 PM MST (2/20)
Length of Visible Light 11h 39m
Length of Day
10h 38m
Waning Crescent, 1% of the Moon is Illuminated
Feb 20
Waning Crescent
Feb 21
New
Feb 29
First Quarter
Mar 8
Full
Mar 14
Last Quarter

Hourly Weather History & Observations

Time (MST) Temp. Windchill Dew Point Humidity Pressure Visibility Wind Dir Wind Speed Gust Speed Precip Events Conditions
12:53 AM 26.1 °F 17.6 °F 12.9 °F 58% 29.89 in 10.0 mi SSW 8.1 mph - N/A   Clear
1:53 AM 26.1 °F 16.2 °F 12.9 °F 58% 29.90 in 10.0 mi SW 10.4 mph - N/A   Clear
2:53 AM 24.1 °F 16.0 °F 12.0 °F 60% 29.90 in 10.0 mi SW 6.9 mph - N/A   Clear
3:53 AM 21.9 °F 9.8 °F 10.9 °F 63% 29.89 in 10.0 mi SW 12.7 mph - N/A   Clear
4:53 AM 21.9 °F 9.8 °F 10.9 °F 63% 29.89 in 10.0 mi SW 12.7 mph - N/A   Clear
5:53 AM 23.0 °F 11.1 °F 10.0 °F 58% 29.91 in 10.0 mi WSW 12.7 mph - N/A   Clear
6:53 AM 19.9 °F 7.9 °F 10.0 °F 65% 29.92 in 10.0 mi SW 11.5 mph - N/A   Partly Cloudy
7:53 AM 23.0 °F 10.1 °F 9.0 °F 55% 29.93 in 10.0 mi WSW 15.0 mph - N/A   Partly Cloudy
8:53 AM 25.0 °F 13.6 °F 12.0 °F 58% 29.93 in 10.0 mi SW 12.7 mph - N/A   Partly Cloudy
9:53 AM 28.0 °F 17.0 °F 14.0 °F 56% 29.93 in 10.0 mi SW 13.8 mph - N/A   Scattered Clouds
10:53 AM 32.0 °F 21.6 °F 12.9 °F 45% 29.92 in 10.0 mi WSW 15.0 mph - N/A   Scattered Clouds
11:53 AM 34.0 °F 24.2 °F 10.9 °F 38% 29.91 in 10.0 mi WSW 15.0 mph - N/A   Overcast
12:53 PM 37.0 °F 28.9 °F 10.0 °F 33% 29.87 in 10.0 mi West 12.7 mph 19.6 mph N/A   Overcast
1:53 PM 37.9 °F 27.6 °F 12.0 °F 35% 29.86 in 10.0 mi WNW 20.7 mph - N/A   Overcast
2:53 PM 37.9 °F 27.1 °F 10.9 °F 33% 29.86 in 10.0 mi WNW 23.0 mph 33.4 mph N/A   Mostly Cloudy
3:53 PM 37.0 °F 26.4 °F 12.9 °F 37% 29.87 in 10.0 mi WNW 20.7 mph 28.8 mph N/A   Scattered Clouds
4:53 PM 36.0 °F 27.1 °F 14.0 °F 41% 29.89 in 10.0 mi WNW 13.8 mph - N/A   Overcast
5:53 PM 35.1 °F 25.5 °F 15.1 °F 44% 29.91 in 10.0 mi WNW 15.0 mph - N/A   Overcast
6:53 PM 33.1 °F 26.1 °F 16.0 °F 50% 29.92 in 10.0 mi NW 8.1 mph - N/A   Overcast
7:53 PM 32.0 °F 27.5 °F 17.1 °F 54% 29.92 in 10.0 mi NNE 4.6 mph - N/A   Overcast
8:53 PM 32.0 °F 26.4 °F 18.0 °F 56% 29.93 in 10.0 mi NW 5.8 mph - N/A   Overcast
9:53 PM 30.9 °F 24.3 °F 19.9 °F 64% 29.93 in 10.0 mi SSE 6.9 mph - N/A   Overcast
10:53 PM 30.9 °F 26.2 °F 19.9 °F 64% 29.91 in 10.0 mi SSE 4.6 mph - N/A   Overcast
11:53 PM 30.0 °F 23.2 °F 24.1 °F 79% 29.90 in 8.0 mi South 6.9 mph - 0.00 in Snow Light Snow